Regional Weather Roundup
Issued by NWS

Home | Current Version | Previous Version | Text Only | Print | Product List | Glossary Off
Versions: 1 2 3 4 5 6 7 8 9 10 11 12 13 14 15 16 17 18 19 20 21 22 23 24 25 26 27 28 29 30 31 32 33 34 35 36 37 38 39 40 41 42 43 44 45 46 47 48 49 50

000
ASUS45 KCYS 270810
RWRWY

WYOMING REGIONAL WEATHER ROUNDUP
NATIONAL WEATHER SERVICE CHEYENNE WY
200 AM MDT WED JUL 27 2016

NOTE:  "FAIR" INDICATES FEW OR NO CLOUDS BELOW 12,000 FEET
WITH NO SIGNIFICANT WEATHER AND/OR OBSTRUCTIONS TO VISIBILITY.

WYZ001-270900-
YELLOWSTONE NATIONAL PARK

CITY           SKY/WX    TMP DP  RH WIND       PRES   REMARKS
LK YELLOWSTONE   N/A     50  37  61 N5        30.38R
W YELLOWSTONE  NOT AVBL

$$
WYZ002>013-054>058-071-098>099-270900-
NORTHERN WYOMING

CITY           SKY/WX    TMP DP  RH WIND       PRES   REMARKS
JACKSON        FAIR      57  36  44 N6        30.25S
CODY           FAIR      64  43  45 CALM      30.17S
GREYBULL       FAIR      72  48  42 N5        30.08S
WORLAND        FAIR      68  50  52 S8        30.08S
SHERIDAN       FAIR      68  49  50 NW7       30.09S
BUFFALO        FAIR      70  48  45 S14       30.16F
GILLETTE       CLOUDY    66  58  75 W10       30.18R THUNDER
HULETT         FAIR      63  59  88 S6        30.16S
NEWCASTLE      FAIR      61  54  77 CALM      30.15S

$$
WYZ014>020-022>026-101>103-270900-
CENTRAL WYOMING

CITY           SKY/WX    TMP DP  RH WIND       PRES   REMARKS
BIG PINEY      FAIR      53  30  41 VRB3      30.27F
PINEDALE       FAIR      50  34  53 N6        30.27F
DUBOIS         FAIR      55  32  41 NW13      30.30S HAZE
LANDER         FAIR      68  39  34 VRB5      30.18F
RIVERTON       FAIR      71  41  33 VRB5      30.17F
CASPER         FAIR      66  48  52 NW12      30.18R
DOUGLAS          N/A    N/A N/A N/A MISG      30.16R

$$
WYZ021-027>030-104>119-270900-
SOUTHERN WYOMING

CITY           SKY/WX    TMP DP  RH WIND       PRES   REMARKS
EVANSTON       FAIR      68  23  18 CALM      30.30S
KEMMERER         N/A     59  32  36 NW7       30.30S
FORT BRIDGER   FAIR      64  19  17 W10       30.30S
ROCK SPRINGS   FAIR      66  30  26 CALM      30.23S
DIXON          FAIR      57  40  52 CALM      30.27F
RAWLINS        FAIR      61  36  39 S7        30.24F
SARATOGA       FAIR      61  37  41 SE10      30.28F
LARAMIE        FAIR      56  35  45 SE6       30.29S
CHEYENNE       FAIR      61  45  55 NW7       30.22R
TORRINGTON     FAIR      68  54  60 SE6       30.09R
PINE BLUFFS    FAIR      55  48  76 CALM      30.16S

$$



USA.gov is the U.S. government's official web portal to all federal, state and local government web resources and services.